Miscellaneous Local Product
Issued by NWS Hastings, NE

Home | Current Version | Previous Version | Graphics & Text | Print | Product List | Glossary On
Versions: 1 2 3 4 5 6 7 8 9 10 11 12 13 14 15 16 17 18 19 20 21 22 23 24 25 26 27 28 29 30 31 32 33 34 35 36 37 38 39 40 41 42 43 44 45 46 47 48 49 50
171
AXUS43 KGID 221902
MISGRI

GID CWA HOURLY WEATHER ROUNDUP
NATIONAL WEATHER SERVICE HASTINGS NE
200 PM CDT SUN OCT 22 2017

NOTE: "FAIR" INDICATES FEW OR NO CLOUDS BELOW 12,000 FEET WITH NO
SIGNIFICANT WEATHER AND/OR OBSTRUCTIONS TO VISIBILITY.

...SOUTH CENTRAL NEBRASKA...

CITY           SKY/WX    TMP DP  RH WIND       PRES   REMARKS
GRAND ISLAND   SUNNY     68  24  19 W16       30.06F
KEARNEY        SUNNY     66  23  19 W16       30.07F
HASTINGS       SUNNY     66  23  19 W17G29    30.08F
ORD            SUNNY     65  26  23 SW17G26   30.02F
YORK           SUNNY     68  25  19 SW12G21   30.06F
AURORA         SUNNY     68  22  17 W13G18    30.06F
LEXINGTON      SUNNY     65  26  22 SW15G28   30.06F
HOLDREGE       SUNNY     65  29  26 W20       30.08F
HEBRON         SUNNY     69  23  17 SW14G20   30.09F

...NEBRASKA PANHANDLE...

CITY           SKY/WX    TMP DP  RH WIND       PRES   REMARKS
CHADRON        SUNNY     70  24  17 W21G33    29.95F
ALLIANCE       SUNNY     66  27  23 MISG      29.99F
SCOTTSBLUFF    CLOUDY    64  29  26 W21G32    30.02F
SIDNEY         SUNNY     67  26  21 W22G32    30.07F

...WESTERN AND NORTH CENTRAL NEBRASKA...

CITY           SKY/WX    TMP DP  RH WIND       PRES   REMARKS
VALENTINE      SUNNY     67  27  22 W21G31    29.95F
AINSWORTH      SUNNY     64  30  27 W18G24    29.97F
ONEILL         SUNNY     65  29  25 SW15G23   30.00F
BROKEN BOW     SUNNY     65  29  25 W21G28    30.03F
IMPERIAL       SUNNY     69  22  16 W20G25    30.07F
NORTH PLATTE   SUNNY     67  26  21 SW15G26   30.05F
MCCOOK         SUNNY     69  20  15 SW20G33   30.08F

...EASTERN NEBRASKA...

CITY           SKY/WX    TMP DP  RH WIND       PRES   REMARKS
NORFOLK        SUNNY     68  28  22 SW20      30.00F
SO SIOUX CITY  SUNNY     68  29  23 SW12G21   30.03F
TEKAMAH        SUNNY     68  26  20 SW10G17   30.04F
COLUMBUS       SUNNY     68  28  22 SW15G25   30.04F
ALBION         SUNNY     67  26  20 W12G24    30.03F
OMAHA EPPLEY   MOSUNNY   66  31  27 VRB6      30.06F
MILLARD        SUNNY     67  35  30 SW6       30.07F
LINCOLN        SUNNY     69  27  20 SW10      30.08F
NEBRASKA CITY  SUNNY     66  33  28 NW6       30.09F
BEATRICE       SUNNY     68  32  26 SW7       30.09F
FALLS CITY     SUNNY     67  33  28 VRB3G16   30.09F

...NORTHERN KANSAS...

CITY           SKY/WX    TMP DP  RH WIND       PRES   REMARKS
GOODLAND       SUNNY     65  17  15 SW17G26   30.13F
HILL CITY      SUNNY     68  22  17 SW14G22   30.12F
NORTON         CLEAR     68  10  10 SW20      30.09F
PHILLIPSBURG   SUNNY     70  23  17 W12G17    30.10F
SMITH CENTER   SUNNY     66  27  22 SW8       30.11F
HAYS           SUNNY     68  24  19 SW12      30.14F
RUSSELL        SUNNY     68  25  19 SW10      30.12F
CONCORDIA      SUNNY     68  28  22 W10       30.11F
SALINA         SUNNY     71  27  19 W10       30.14F HAZE
TOPEKA         SUNNY     68  40  35 W10       30.11F



USA.gov is the U.S. government's official web portal to all federal, state and local government web resources and services.